ORBCOMM FM113 [+] (41185 NORAD) Tracking and Keplerian Element Data

This shows tracking and keplerian element data for the satellite.

Feedback or suggestion? Click here.




ElementValue
Catalog41185
NameORBCOMM FM113 [+]
Epoch Orbit30748
Epoch Day268.85444849
Epoch Year2021
RAAN118.8428
Inclination47.0009
Eccentricity0.0002023
Argument of Perigee310.3889
Mean Anonmoly49.6818
Mean Motion14.54922722
Decay Rate1E-07
L11 41185U 15081G 21268.85444849 .00000010 00000-0 40584-4 0 9995
L22 41185 47.0009 118.8428 0002023 310.3889 49.6818 14.54922722307488

Live tracking and technical data element details for ORBCOMM FM113 [+] (NORAD 41185). ORBCOMM FM113 [+] can be tracked NOW for your location showing map with azimuth and elevation plus other details from your city location.

Track the satellite on the map from your city or location and see movement details for azimuth, elevation, latitude, longitude, range, height, and movement on the map or in text.







IsCatalogInMostPopularTable: catalog: 41185, numindb: 572
Update: records affected: 1



GetName: 41185 ORBCOMM FM113 [+]

Hit Count: updated at: Mon, 27 Sep 2021 01:28:22 GMT